| time (UTC) | temp F | wind direction | speed MPH | gust MPH | rain 1hr in | rain 24hr in | rain mn in | humidity % | barometer mb |
| 20260508153533 | 59 | 131 | 1.0 | 2.0 | 0.00 | 0.00 | 0.00 | 48 | 1010.3 |
| 20260508153030 | 58 | 149 | 2.0 | 3.0 | 0.00 | 0.00 | 0.00 | 39 | 1010.5 |
| 20260508152527 | 58 | 101 | 4.0 | 5.0 | 0.00 | 0.00 | 0.00 | 54 | 1010.3 |
| 20260508152022 | 58 | 126 | 5.0 | 6.0 | 0.00 | 0.00 | 0.00 | 46 | 1010.4 |
| 20260508151520 | 58 | 172 | 5.0 | 6.0 | 0.00 | 0.00 | 0.00 | 53 | 1010.7 |
| 20260508151016 | 57 | 193 | 3.0 | 5.0 | 0.00 | 0.00 | 0.00 | 53 | 1010.5 |
| 20260508150514 | 57 | 111 | 3.0 | 5.0 | 0.00 | 0.00 | 0.00 | 59 | 1010.6 |
| 20260508150009 | 57 | 106 | 2.0 | 2.0 | 0.00 | 0.00 | 0.00 | 65 | 1010.5 |
| 20260508145506 | 57 | 156 | 3.0 | 5.0 | 0.00 | 0.00 | 0.00 | 65 | 1010.9 |
| 20260508145002 | 57 | 127 | 3.0 | 3.0 | 0.00 | 0.00 | 0.00 | 66 | 1010.6 |
| 20260508144500 | 55 | 213 | 1.0 | 1.0 | 0.00 | 0.00 | 0.00 | 69 | 1011.0 |
| 20260508143957 | 56 | 141 | 2.0 | 2.0 | 0.00 | 0.00 | 0.00 | 68 | 1010.8 |
| 20260508143455 | 55 | 117 | 3.0 | 3.0 | 0.00 | 0.00 | 0.00 | 72 | 1010.5 |
| 20260508142951 | 55 | 141 | 3.0 | 3.0 | 0.00 | 0.00 | 0.00 | 70 | 1010.8 |
| 20260508142448 | 54 | 134 | 1.0 | 2.0 | 0.00 | 0.00 | 0.00 | 74 | 1010.6 |
| 20260508141944 | 53 | 105 | 3.0 | 3.0 | 0.00 | 0.00 | 0.00 | 75 | 1010.7 |
| 20260508141441 | 53 | 130 | 3.0 | 5.0 | 0.00 | 0.00 | 0.00 | 76 | 1010.7 |
| 20260508140939 | 52 | 139 | 1.0 | 1.0 | 0.00 | 0.00 | 0.00 | 77 | 1010.7 |
| 20260508140436 | 52 | 166 | 1.0 | 2.0 | 0.00 | 0.00 | 0.00 | 77 | 1010.7 |
| 20260508135931 | 52 | 94 | 3.0 | 3.0 | 0.00 | 0.00 | 0.00 | 78 | 1010.6 |
| 20260508135428 | 51 | 61 | 1.0 | 1.0 | 0.00 | 0.00 | 0.00 | 79 | 1010.8 |
| 20260508134925 | 51 | 83 | 1.0 | 1.0 | 0.00 | 0.00 | 0.00 | 82 | 1010.6 |
| 20260508134421 | 50 | 121 | 1.0 | 1.0 | 0.00 | 0.00 | 0.00 | 83 | 1010.6 |
| 20260508133918 | 50 | 119 | 2.0 | 3.0 | 0.00 | 0.00 | 0.00 | 82 | 1010.7 |
| 20260508133416 | 50 | 111 | 3.0 | 3.0 | 0.00 | 0.00 | 0.00 | 82 | 1011.0 |
| 20260508132912 | 49 | 176 | 1.0 | 1.0 | 0.00 | 0.00 | 0.00 | 85 | 1010.8 |
| 20260508132410 | 48 | 154 | 3.0 | 6.0 | 0.00 | 0.00 | 0.00 | 86 | 1010.8 |
| 20260508131907 | 49 | 133 | 3.0 | 3.0 | 0.00 | 0.00 | 0.00 | 87 | 1010.9 |
| 20260508131402 | 47 | 74 | 0.0 | 1.0 | 0.00 | 0.00 | 0.00 | 89 | 1010.7 |
| 20260508130859 | 48 | 113 | 1.0 | 2.0 | 0.00 | 0.00 | 0.00 | 90 | 1010.8 |
| 20260508130356 | 47 | 114 | 1.0 | 1.0 | 0.00 | 0.00 | 0.00 | 91 | 1010.9 |
| 20260508125852 | 46 | 68 | 1.0 | 2.0 | 0.00 | 0.00 | 0.00 | 90 | 1010.9 |
| 20260508125348 | 47 | 141 | 2.0 | 2.0 | 0.00 | 0.00 | 0.00 | 91 | 1011.2 |
| 20260508124846 | 47 | 127 | 3.0 | 3.0 | 0.00 | 0.00 | 0.00 | 91 | 1010.9 |
| 20260508124343 | 47 | 126 | 0.0 | 0.0 | 0.00 | 0.00 | 0.00 | 93 | 1011.0 |
| 20260508123841 | 46 | 117 | 1.0 | 1.0 | 0.00 | 0.00 | 0.00 | 96 | 1010.9 |
| 20260508123340 | 45 | 56 | 0.0 | 1.0 | 0.00 | 0.00 | 0.00 | 98 | 1010.8 |
| 20260508122836 | 45 | 93 | 0.0 | 0.0 | 0.00 | 0.00 | 0.00 | 99 | 1010.6 |
| 20260508122332 | 44 | 81 | 0.0 | 0.0 | 0.00 | 0.00 | 0.00 | 99 | 1010.8 |
| 20260508121830 | 43 | 90 | 0.0 | 1.0 | 0.00 | 0.00 | 0.00 | 99 | 1010.9 |
| 20260508121328 | 43 | 110 | 0.0 | 0.0 | 0.00 | 0.00 | 0.00 | 99 | 1011.0 |
| 20260508120826 | 42 | 96 | 0.0 | 0.0 | 0.00 | 0.00 | 0.00 | 99 | 1011.1 |
| 20260508120323 | 42 | 330 | 0.0 | 0.0 | 0.00 | 0.00 | 0.00 | 99 | 1010.8 |
| 20260508115820 | 42 | 273 | 0.0 | 0.0 | 0.00 | 0.00 | 0.00 | 99 | 1010.8 |
| 20260508115318 | 41 | 273 | 0.0 | 0.0 | 0.00 | 0.00 | 0.00 | 99 | 1011.0 |
| 20260508114814 | 41 | 273 | 0.0 | 0.0 | 0.00 | 0.00 | 0.00 | 99 | 1010.9 |
| 20260508114311 | 40 | 273 | 0.0 | 0.0 | 0.00 | 0.00 | 0.00 | 99 | 1010.9 |
| 20260508113808 | 39 | 273 | 0.0 | 0.0 | 0.00 | 0.00 | 0.00 | 99 | 1010.6 |
| 20260508113306 | 38 | 273 | 0.0 | 0.0 | 0.00 | 0.00 | 0.00 | 99 | 1010.5 |
| 20260508112802 | 37 | 273 | 0.0 | 0.0 | 0.00 | 0.00 | 0.00 | 99 | 1010.7 |
| 20260508112259 | 37 | 273 | 0.0 | 0.0 | 0.00 | 0.00 | 0.00 | 99 | 1010.6 |
| 20260508111755 | 37 | 273 | 0.0 | 0.0 | 0.00 | 0.00 | 0.00 | 99 | 1010.7 |
| 20260508111254 | 36 | 273 | 0.0 | 0.0 | 0.00 | 0.00 | 0.00 | 99 | 1010.6 |
| 20260508110750 | 36 | 273 | 0.0 | 0.0 | 0.00 | 0.00 | 0.00 | 99 | 1010.5 |
| 20260508110248 | 35 | 273 | 0.0 | 0.0 | 0.00 | 0.00 | 0.00 | 99 | 1010.7 |
| 20260508105747 | 35 | 273 | 0.0 | 0.0 | 0.00 | 0.00 | 0.00 | 99 | 1010.5 |
| 20260508105244 | 35 | 273 | 0.0 | 0.0 | 0.00 | 0.00 | 0.00 | 99 | 1010.7 |
| 20260508104742 | 35 | 273 | 0.0 | 0.0 | 0.00 | 0.00 | 0.00 | 99 | 1010.6 |
| 20260508104238 | 35 | 272 | 0.0 | 0.0 | 0.00 | 0.00 | 0.00 | 99 | 1010.6 |
| 20260508103736 | 35 | 272 | 0.0 | 0.0 | 0.00 | 0.00 | 0.00 | 99 | 1010.6 |
| 20260508103232 | 35 | 272 | 0.0 | 0.0 | 0.00 | 0.00 | 0.00 | 99 | 1010.6 |
| 20260508102730 | 35 | 273 | 0.0 | 0.0 | 0.00 | 0.00 | 0.00 | 99 | 1010.6 |
| 20260508102228 | 35 | 273 | 0.0 | 0.0 | 0.00 | 0.00 | 0.00 | 99 | 1010.7 |
| 20260508101725 | 35 | 273 | 0.0 | 0.0 | 0.00 | 0.00 | 0.00 | 99 | 1010.7 |
| 20260508101222 | 35 | 263 | 0.0 | 0.0 | 0.00 | 0.00 | 0.00 | 99 | 1010.6 |
| 20260508100719 | 35 | 263 | 0.0 | 0.0 | 0.00 | 0.00 | 0.00 | 99 | 1010.6 |
| 20260508100217 | 35 | 263 | 0.0 | 0.0 | 0.00 | 0.00 | 0.00 | 99 | 1010.7 |
| 20260508095713 | 35 | 263 | 0.0 | 0.0 | 0.00 | 0.00 | 0.00 | 99 | 1010.5 |
| 20260508095211 | 35 | 262 | 0.0 | 0.0 | 0.00 | 0.00 | 0.00 | 99 | 1010.7 |
| 20260508094707 | 35 | 262 | 0.0 | 0.0 | 0.00 | 0.00 | 0.00 | 99 | 1010.4 |
| 20260508094205 | 35 | 262 | 0.0 | 0.0 | 0.00 | 0.00 | 0.00 | 99 | 1010.7 |
| 20260508093702 | 35 | 270 | 0.0 | 0.0 | 0.00 | 0.00 | 0.00 | 99 | 1010.7 |
| 20260508093200 | 36 | 271 | 0.0 | 0.0 | 0.00 | 0.00 | 0.00 | 99 | 1010.8 |
| 20260508092656 | 36 | 271 | 0.0 | 0.0 | 0.00 | 0.00 | 0.00 | 99 | 1010.7 |
| 20260508092155 | 36 | 271 | 0.0 | 0.0 | 0.00 | 0.00 | 0.00 | 99 | 1010.8 |
| 20260508091652 | 36 | 270 | 0.0 | 0.0 | 0.00 | 0.00 | 0.00 | 99 | 1010.8 |
| 20260508091149 | 36 | 269 | 0.0 | 0.0 | 0.00 | 0.00 | 0.00 | 99 | 1010.8 |
| 20260508090646 | 36 | 264 | 0.0 | 0.0 | 0.00 | 0.00 | 0.00 | 99 | 1010.8 |
| 20260508090144 | 36 | 264 | 0.0 | 0.0 | 0.00 | 0.00 | 0.00 | 99 | 1010.8 |
| 20260508085639 | 36 | 264 | 0.0 | 0.0 | 0.00 | 0.00 | 0.00 | 99 | 1010.9 |
| 20260508085137 | 36 | 264 | 0.0 | 0.0 | 0.00 | 0.00 | 0.00 | 99 | 1010.7 |
| 20260508084633 | 36 | 264 | 0.0 | 0.0 | 0.00 | 0.00 | 0.00 | 99 | 1011.0 |
| 20260508084131 | 36 | 264 | 0.0 | 0.0 | 0.00 | 0.00 | 0.00 | 99 | 1010.9 |
| 20260508083628 | 37 | 264 | 0.0 | 0.0 | 0.00 | 0.00 | 0.00 | 99 | 1011.0 |
| 20260508083125 | 37 | 264 | 0.0 | 0.0 | 0.00 | 0.00 | 0.00 | 99 | 1011.0 |
| 20260508082620 | 37 | 266 | 0.0 | 0.0 | 0.00 | 0.00 | 0.00 | 99 | 1010.8 |
| 20260508082118 | 37 | 262 | 0.0 | 0.0 | 0.00 | 0.00 | 0.00 | 99 | 1010.9 |
| 20260508081616 | 37 | 262 | 0.0 | 0.0 | 0.00 | 0.00 | 0.00 | 99 | 1010.9 |
| 20260508081112 | 37 | 262 | 0.0 | 0.0 | 0.00 | 0.00 | 0.00 | 99 | 1010.9 |
| 20260508080609 | 37 | 262 | 0.0 | 0.0 | 0.00 | 0.00 | 0.00 | 99 | 1010.9 |
| 20260508080108 | 37 | 261 | 0.0 | 0.0 | 0.00 | 0.00 | 0.00 | 99 | 1010.9 |
| 20260508075603 | 37 | 261 | 0.0 | 0.0 | 0.00 | 0.00 | 0.00 | 99 | 1011.0 |
| 20260508075100 | 37 | 267 | 0.0 | 0.0 | 0.00 | 0.00 | 0.00 | 99 | 1011.1 |
| 20260508074558 | 37 | 267 | 0.0 | 0.0 | 0.00 | 0.00 | 0.00 | 99 | 1011.3 |
| 20260508074055 | 38 | 267 | 0.0 | 0.0 | 0.00 | 0.00 | 0.00 | 99 | 1011.2 |
| 20260508073552 | 38 | 267 | 0.0 | 0.0 | 0.00 | 0.00 | 0.00 | 99 | 1011.2 |
| 20260508073050 | 38 | 268 | 0.0 | 0.0 | 0.00 | 0.00 | 0.00 | 99 | 1011.3 |
| 20260508072545 | 39 | 268 | 0.0 | 0.0 | 0.00 | 0.00 | 0.00 | 99 | 1011.4 |
| 20260508072042 | 39 | 289 | 0.0 | 0.0 | 0.00 | 0.00 | 0.00 | 99 | 1011.5 |
| 20260508071540 | 39 | 305 | 0.0 | 0.0 | 0.00 | 0.00 | 0.00 | 99 | 1011.4 |
| 20260508071038 | 38 | 299 | 0.0 | 0.0 | 0.00 | 0.00 | 0.00 | 99 | 1011.4 |
| 20260508070536 | 38 | 282 | 0.0 | 0.0 | 0.00 | 0.00 | 0.00 | 99 | 1011.5 |
| 20260508070034 | 38 | 278 | 0.0 | 0.0 | 0.00 | 0.00 | 0.00 | 99 | 1011.5 |
| 20260508065531 | 38 | 274 | 0.0 | 0.0 | 0.00 | 0.00 | 0.00 | 99 | 1011.3 |
| 20260508065029 | 38 | 262 | 0.0 | 0.0 | 0.00 | 0.00 | 0.00 | 99 | 1011.6 |
| 20260508064527 | 38 | 261 | 0.0 | 1.0 | 0.00 | 0.00 | 0.00 | 98 | 1011.4 |
| 20260508064024 | 38 | 258 | 0.0 | 0.0 | 0.00 | 0.00 | 0.00 | 98 | 1011.5 |
| 20260508063521 | 38 | 258 | 1.0 | 1.0 | 0.00 | 0.00 | 0.00 | 98 | 1011.5 |
| 20260508063019 | 38 | 258 | 0.0 | 0.0 | 0.00 | 0.00 | 0.00 | 98 | 1011.6 |
| 20260508062516 | 38 | 252 | 0.0 | 0.0 | 0.00 | 0.00 | 0.00 | 98 | 1011.3 |
| 20260508062013 | 38 | 250 | 0.0 | 0.0 | 0.00 | 0.00 | 0.00 | 98 | 1011.6 |
| 20260508061511 | 38 | 250 | 0.0 | 0.0 | 0.00 | 0.00 | 0.00 | 98 | 1011.4 |
| 20260508061007 | 38 | 249 | 0.0 | 0.0 | 0.00 | 0.00 | 0.00 | 98 | 1011.6 |
| 20260508060505 | 39 | 249 | 0.0 | 0.0 | 0.00 | 0.00 | 0.00 | 98 | 1011.5 |
| 20260508060001 | 39 | 249 | 0.0 | 0.0 | 0.00 | 0.00 | 0.00 | 98 | 1011.7 |
| 20260508055458 | 39 | 249 | 0.0 | 0.0 | 0.00 | 0.00 | 0.00 | 98 | 1011.6 |
| 20260508054954 | 39 | 248 | 0.0 | 0.0 | 0.00 | 0.00 | 0.00 | 98 | 1011.5 |
| 20260508054451 | 39 | 247 | 0.0 | 0.0 | 0.00 | 0.00 | 0.00 | 98 | 1011.4 |
| 20260508053948 | 40 | 262 | 0.0 | 0.0 | 0.00 | 0.00 | 0.00 | 98 | 1011.3 |
| 20260508053444 | 40 | 274 | 0.0 | 0.0 | 0.00 | 0.00 | 0.00 | 98 | 1011.3 |
| 20260508052943 | 40 | 286 | 0.0 | 1.0 | 0.00 | 0.00 | 0.00 | 98 | 1011.2 |
| 20260508052440 | 40 | 309 | 0.0 | 0.0 | 0.00 | 0.00 | 0.00 | 98 | 1011.1 |
| 20260508051936 | 40 | 8 | 0.0 | 0.0 | 0.00 | 0.00 | 0.00 | 98 | 1011.2 |
| 20260508051432 | 40 | 295 | 0.0 | 1.0 | 0.00 | 0.00 | 0.00 | 97 | 1011.1 |
| 20260508050928 | 40 | 292 | 0.0 | 0.0 | 0.00 | 0.00 | 0.00 | 97 | 1011.1 |
| 20260508050425 | 40 | 267 | 0.0 | 0.0 | 0.00 | 0.00 | 0.00 | 97 | 1011.0 |
| 20260508045921 | 40 | 274 | 0.0 | 0.0 | 0.00 | 0.07 | 0.07 | 97 | 1011.0 |
| 20260508045419 | 40 | 273 | 0.0 | 0.0 | 0.00 | 0.07 | 0.07 | 97 | 1011.1 |
| 20260508044916 | 40 | 280 | 1.0 | 1.0 | 0.00 | 0.07 | 0.07 | 97 | 1011.2 |
| 20260508044413 | 40 | 281 | 1.0 | 1.0 | 0.00 | 0.07 | 0.07 | 97 | 1010.9 |
| 20260508043908 | 40 | 279 | 0.0 | 0.0 | 0.00 | 0.07 | 0.07 | 97 | 1011.0 |
| 20260508043406 | 40 | 271 | 0.0 | 1.0 | 0.00 | 0.07 | 0.07 | 96 | 1010.9 |
| 20260508042902 | 41 | 268 | 0.0 | 0.0 | 0.00 | 0.07 | 0.07 | 96 | 1011.0 |
| 20260508042400 | 41 | 290 | 0.0 | 0.0 | 0.00 | 0.07 | 0.07 | 96 | 1011.0 |
| 20260508041857 | 41 | 294 | 0.0 | 0.0 | 0.00 | 0.07 | 0.07 | 96 | 1011.2 |
| 20260508041353 | 41 | 282 | 0.0 | 0.0 | 0.00 | 0.07 | 0.07 | 96 | 1010.8 |
| 20260508040850 | 41 | 285 | 0.0 | 0.0 | 0.00 | 0.07 | 0.07 | 96 | 1011.0 |
| 20260508040347 | 42 | 292 | 0.0 | 1.0 | 0.00 | 0.07 | 0.07 | 96 | 1011.0 |
| 20260508035845 | 42 | 302 | 0.0 | 1.0 | 0.00 | 0.07 | 0.07 | 96 | 1010.9 |
| 20260508035342 | 42 | 296 | 0.0 | 0.0 | 0.00 | 0.07 | 0.07 | 96 | 1010.9 |
| 20260508034839 | 42 | 324 | 0.0 | 0.0 | 0.00 | 0.07 | 0.07 | 96 | 1010.6 |
| 20260508034336 | 42 | 320 | 0.0 | 1.0 | 0.00 | 0.07 | 0.07 | 96 | 1010.9 |
| 20260508033832 | 42 | 299 | 0.0 | 0.0 | 0.00 | 0.07 | 0.07 | 96 | 1010.7 |
| 20260508033330 | 42 | 317 | 1.0 | 1.0 | 0.00 | 0.07 | 0.07 | 96 | 1010.8 |
| 20260508032827 | 42 | 280 | 0.0 | 0.0 | 0.00 | 0.07 | 0.07 | 96 | 1010.6 |
| 20260508032320 | 42 | 288 | 0.0 | 0.0 | 0.00 | 0.07 | 0.07 | 96 | 1010.7 |
| 20260508031816 | 42 | 279 | 0.0 | 0.0 | 0.00 | 0.07 | 0.07 | 95 | 1010.6 |
| 20260508031313 | 42 | 279 | 0.0 | 0.0 | 0.00 | 0.07 | 0.07 | 95 | 1010.7 |
| 20260508030809 | 42 | 279 | 0.0 | 0.0 | 0.00 | 0.07 | 0.07 | 95 | 1010.7 |
| 20260508030307 | 42 | 280 | 0.0 | 0.0 | 0.00 | 0.07 | 0.07 | 95 | 1010.5 |
| 20260508025802 | 42 | 270 | 0.0 | 0.0 | 0.00 | 0.07 | 0.07 | 95 | 1010.7 |
| 20260508025300 | 42 | 267 | 0.0 | 0.0 | 0.00 | 0.07 | 0.07 | 94 | 1010.5 |
| 20260508024756 | 43 | 267 | 0.0 | 0.0 | 0.00 | 0.07 | 0.07 | 94 | 1010.6 |
| 20260508024253 | 43 | 283 | 0.0 | 0.0 | 0.00 | 0.07 | 0.07 | 93 | 1010.5 |
| 20260508023750 | 44 | 283 | 0.0 | 0.0 | 0.00 | 0.07 | 0.07 | 93 | 1010.6 |
| 20260508023247 | 44 | 278 | 0.0 | 0.0 | 0.00 | 0.07 | 0.07 | 93 | 1010.2 |
| 20260508022743 | 44 | 295 | 0.0 | 0.0 | 0.00 | 0.07 | 0.07 | 93 | 1010.3 |
| 20260508022240 | 44 | 340 | 0.0 | 0.0 | 0.00 | 0.07 | 0.07 | 92 | 1010.2 |
| 20260508021737 | 45 | 350 | 0.0 | 1.0 | 0.00 | 0.07 | 0.07 | 92 | 1010.2 |
| 20260508021232 | 45 | 185 | 0.0 | 1.0 | 0.00 | 0.07 | 0.07 | 93 | 1010.1 |
| 20260508020729 | 45 | 349 | 1.0 | 1.0 | 0.00 | 0.07 | 0.07 | 93 | 1010.2 |
| 20260508020227 | 45 | 152 | 0.0 | 0.0 | 0.00 | 0.07 | 0.07 | 93 | 1010.1 |
| 20260508015723 | 44 | 336 | 1.0 | 1.0 | 0.00 | 0.07 | 0.07 | 93 | 1009.9 |
| 20260508015221 | 44 | 193 | 0.0 | 0.0 | 0.00 | 0.07 | 0.07 | 93 | 1009.7 |
| 20260508014717 | 44 | 193 | 0.0 | 0.0 | 0.00 | 0.07 | 0.07 | 92 | 1009.7 |
| 20260508014214 | 45 | 193 | 0.0 | 0.0 | 0.00 | 0.07 | 0.07 | 92 | 1009.6 |
| 20260508013710 | 45 | 193 | 0.0 | 0.0 | 0.00 | 0.07 | 0.07 | 92 | 1009.4 |
| 20260508013206 | 45 | 193 | 0.0 | 0.0 | 0.00 | 0.07 | 0.07 | 91 | 1009.5 |
| 20260508012704 | 45 | 193 | 0.0 | 0.0 | 0.00 | 0.07 | 0.07 | 90 | 1009.4 |
| 20260508012201 | 46 | 193 | 0.0 | 0.0 | 0.00 | 0.07 | 0.07 | 89 | 1009.6 |
| 20260508011659 | 46 | 193 | 0.0 | 0.0 | 0.00 | 0.07 | 0.07 | 88 | 1009.3 |
| 20260508011156 | 46 | 194 | 0.0 | 0.0 | 0.00 | 0.07 | 0.07 | 87 | 1009.4 |
| 20260508010653 | 47 | 193 | 0.0 | 0.0 | 0.00 | 0.07 | 0.07 | 86 | 1009.2 |
| 20260508010151 | 48 | 193 | 0.0 | 0.0 | 0.00 | 0.07 | 0.07 | 86 | 1009.4 |
| 20260508005648 | 48 | 187 | 0.0 | 0.0 | 0.00 | 0.07 | 0.07 | 85 | 1009.2 |
| 20260508005144 | 48 | 193 | 0.0 | 1.0 | 0.00 | 0.07 | 0.07 | 84 | 1009.3 |
| 20260508004640 | 49 | 132 | 0.0 | 1.0 | 0.00 | 0.07 | 0.07 | 84 | 1009.2 |
| 20260508004137 | 49 | 177 | 0.0 | 0.0 | 0.00 | 0.07 | 0.07 | 83 | 1009.3 |
| 20260508003633 | 49 | 165 | 1.0 | 1.0 | 0.00 | 0.07 | 0.07 | 83 | 1009.5 |
| 20260508003131 | 49 | 107 | 3.0 | 3.0 | 0.00 | 0.07 | 0.07 | 83 | 1009.5 |
| 20260508002627 | 50 | 159 | 1.0 | 1.0 | 0.00 | 0.07 | 0.07 | 82 | 1009.3 |
| 20260508002125 | 50 | 184 | 2.0 | 2.0 | 0.00 | 0.07 | 0.07 | 82 | 1009.3 |
| 20260508001620 | 50 | 142 | 1.0 | 1.0 | 0.00 | 0.07 | 0.07 | 82 | 1009.2 |
| 20260508001116 | 50 | 150 | 1.0 | 1.0 | 0.00 | 0.07 | 0.07 | 82 | 1009.1 |
| 20260508000612 | 50 | 149 | 1.0 | 1.0 | 0.00 | 0.07 | 0.07 | 81 | 1009.5 |
| 20260508000110 | 51 | 75 | 2.0 | 2.0 | 0.00 | 0.07 | 0.07 | 81 | 1009.2 |
| 20260507235607 | 51 | 82 | 1.0 | 1.0 | 0.00 | 0.07 | 0.07 | 81 | 1009.1 |
| 20260507235104 | 51 | 104 | 3.0 | 3.0 | 0.00 | 0.07 | 0.07 | 80 | 1009.2 |
| 20260507234600 | 51 | 55 | 3.0 | 6.0 | 0.00 | 0.07 | 0.07 | 79 | 1009.2 |
| 20260507234057 | 51 | 80 | 0.0 | 0.0 | 0.00 | 0.07 | 0.07 | 79 | 1009.2 |
| 20260507233553 | 51 | 27 | 0.0 | 2.0 | 0.00 | 0.07 | 0.07 | 78 | 1009.2 |
| 20260507233053 | 51 | 114 | 2.0 | 3.0 | 0.00 | 0.07 | 0.07 | 78 | 1009.2 |
| 20260507232548 | 52 | 97 | 1.0 | 2.0 | 0.00 | 0.07 | 0.07 | 76 | 1009.3 |
| 20260507232045 | 52 | 5 | 1.0 | 1.0 | 0.00 | 0.07 | 0.07 | 75 | 1009.4 |
| 20260507231542 | 53 | 84 | 3.0 | 3.0 | 0.00 | 0.07 | 0.07 | 74 | 1009.3 |
| 20260507231039 | 53 | 355 | 1.0 | 2.0 | 0.00 | 0.07 | 0.07 | 75 | 1009.4 |
| 20260507230536 | 53 | 97 | 1.0 | 2.0 | 0.00 | 0.07 | 0.07 | 73 | 1009.3 |
| 20260507230033 | 54 | 86 | 1.0 | 1.0 | 0.00 | 0.07 | 0.07 | 71 | 1009.1 |
| 20260507225527 | 54 | 94 | 5.0 | 7.0 | 0.00 | 0.07 | 0.07 | 68 | 1008.9 |
| 20260507225024 | 58 | 356 | 2.0 | 3.0 | 0.00 | 0.07 | 0.07 | 63 | 1009.3 |
| 20260507224520 | 59 | 272 | 0.0 | 0.0 | 0.00 | 0.07 | 0.07 | 55 | 1009.0 |
| 20260507224016 | 59 | 271 | 0.0 | 1.0 | 0.00 | 0.07 | 0.07 | 58 | 1009.2 |
| 20260507223513 | 59 | 259 | 1.0 | 1.0 | 0.00 | 0.07 | 0.07 | 57 | 1009.1 |
| 20260507223010 | 59 | 207 | 4.0 | 5.0 | 0.00 | 0.07 | 0.07 | 57 | 1009.0 |
| 20260507222507 | 58 | 237 | 4.0 | 6.0 | 0.00 | 0.07 | 0.07 | 59 | 1009.1 |
| 20260507222003 | 57 | 249 | 4.0 | 5.0 | 0.00 | 0.07 | 0.07 | 60 | 1009.2 |
| 20260507221500 | 56 | 274 | 6.0 | 8.0 | 0.00 | 0.07 | 0.07 | 62 | 1009.1 |
| 20260507220956 | 55 | 225 | 1.0 | 1.0 | 0.00 | 0.07 | 0.07 | 72 | 1009.5 |
| 20260507220454 | 54 | 223 | 1.0 | 2.0 | 0.00 | 0.07 | 0.07 | 74 | 1009.2 |
| 20260507215950 | 54 | 234 | 2.0 | 2.0 | 0.00 | 0.07 | 0.07 | 74 | 1009.6 |
| 20260507215447 | 53 | 144 | 5.0 | 6.0 | 0.00 | 0.07 | 0.07 | 75 | 1009.4 |
| 20260507214944 | 53 | 246 | 4.0 | 6.0 | 0.00 | 0.07 | 0.07 | 76 | 1009.4 |
| 20260507214442 | 51 | 139 | 3.0 | 5.0 | 0.00 | 0.07 | 0.07 | 80 | 1009.8 |
| 20260507213937 | 51 | 155 | 2.0 | 7.0 | 0.00 | 0.07 | 0.07 | 85 | 1009.7 |
| 20260507213434 | 50 | 163 | 3.0 | 5.0 | 0.00 | 0.07 | 0.07 | 85 | 1009.6 |
| 20260507212931 | 50 | 161 | 3.0 | 3.0 | 0.00 | 0.07 | 0.07 | 88 | 1009.8 |
| 20260507212427 | 49 | 183 | 1.0 | 2.0 | 0.00 | 0.07 | 0.07 | 88 | 1009.9 |
| 20260507211924 | 50 | 252 | 3.0 | 3.0 | 0.00 | 0.07 | 0.07 | 88 | 1010.0 |
| 20260507211421 | 49 | 143 | 2.0 | 2.0 | 0.00 | 0.07 | 0.07 | 90 | 1009.9 |
| 20260507210917 | 48 | 196 | 3.0 | 5.0 | 0.00 | 0.07 | 0.07 | 92 | 1010.2 |
| 20260507210414 | 48 | 218 | 1.0 | 2.0 | 0.12 | 0.07 | 0.07 | 92 | 1010.1 |
| 20260507205911 | 49 | 181 | 2.0 | 2.0 | 0.19 | 0.07 | 0.07 | 91 | 1010.0 |
| 20260507205408 | 50 | 123 | 3.0 | 3.0 | 0.12 | 0.06 | 0.06 | 89 | 1010.0 |
| 20260507204904 | 51 | 83 | 0.0 | 0.0 | 0.00 | 0.04 | 0.04 | 85 | 1010.1 |
| 20260507204401 | 52 | 99 | 3.0 | 5.0 | 0.00 | 0.04 | 0.04 | 78 | 1010.1 |
| 20260507203858 | 52 | 111 | 1.0 | 1.0 | 0.00 | 0.04 | 0.04 | 72 | 1009.9 |
| 20260507203356 | 53 | 112 | 2.0 | 2.0 | 0.00 | 0.04 | 0.04 | 74 | 1009.9 |
| 20260507202852 | 52 | 224 | 0.0 | 1.0 | 0.00 | 0.04 | 0.04 | 78 | 1009.9 |
| 20260507202349 | 51 | 304 | 3.0 | 3.0 | 0.07 | 0.04 | 0.04 | 79 | 1009.9 |
| 20260507201844 | 51 | 342 | 1.0 | 1.0 | 0.07 | 0.04 | 0.04 | 84 | 1009.9 |
| 20260507201340 | 51 | 304 | 1.0 | 1.0 | 0.00 | 0.03 | 0.03 | 82 | 1009.8 |
| 20260507200837 | 51 | 353 | 1.0 | 2.0 | 0.00 | 0.03 | 0.03 | 80 | 1009.9 |
| 20260507200333 | 52 | 67 | 1.0 | 1.0 | 0.00 | 0.03 | 0.03 | 75 | 1009.9 |
| 20260507195829 | 51 | 67 | 4.0 | 5.0 | 0.00 | 0.03 | 0.03 | 78 | 1010.0 |
| 20260507195326 | 52 | 92 | 2.0 | 2.0 | 0.00 | 0.03 | 0.03 | 79 | 1010.0 |
| 20260507194824 | 51 | 94 | 0.0 | 1.0 | 0.05 | 0.03 | 0.03 | 78 | 1010.2 |
| 20260507194320 | 51 | 74 | 3.0 | 3.0 | 0.05 | 0.03 | 0.03 | 81 | 1010.3 |
| 20260507193816 | 51 | 334 | 0.0 | 0.0 | 0.07 | 0.02 | 0.02 | 82 | 1010.3 |
| 20260507193314 | 51 | 219 | 1.0 | 2.0 | 0.07 | 0.02 | 0.02 | 77 | 1010.6 |
| 20260507192809 | 52 | 272 | 0.0 | 0.0 | 0.05 | 0.01 | 0.01 | 77 | 1010.5 |
| 20260507192306 | 51 | 21 | 2.0 | 3.0 | 0.05 | 0.01 | 0.01 | 72 | 1010.5 |
| 20260507191803 | 53 | 316 | 4.0 | 8.0 | 0.00 | 0.00 | 0.00 | 71 | 1011.0 |
| 20260507191259 | 54 | 231 | 0.0 | 1.0 | 0.00 | 0.00 | 0.00 | 64 | 1010.9 |
| 20260507190756 | 54 | 88 | 0.0 | 1.0 | 0.00 | 0.00 | 0.00 | 65 | 1010.8 |
| 20260507190255 | 55 | 296 | 1.0 | 2.0 | 0.00 | 0.00 | 0.00 | 60 | 1010.9 |
| 20260507185753 | 55 | 213 | 0.0 | 0.0 | 0.00 | 0.00 | 0.00 | 57 | 1011.0 |
| 20260507185249 | 54 | 199 | 0.0 | 0.0 | 0.00 | 0.00 | 0.00 | 58 | 1011.0 |
| 20260507184747 | 54 | 2 | 2.0 | 3.0 | 0.00 | 0.00 | 0.00 | 58 | 1011.1 |
| 20260507184245 | 56 | 239 | 4.0 | 5.0 | 0.00 | 0.00 | 0.00 | 52 | 1011.0 |
| 20260507183741 | 57 | 231 | 3.0 | 6.0 | 0.00 | 0.00 | 0.00 | 48 | 1010.8 |
| 20260507183238 | 58 | 196 | 2.0 | 3.0 | 0.00 | 0.00 | 0.00 | 45 | 1010.8 |
| 20260507182735 | 59 | 182 | 1.0 | 2.0 | 0.00 | 0.00 | 0.00 | 49 | 1010.7 |
| 20260507182230 | 60 | 254 | 3.0 | 3.0 | 0.00 | 0.00 | 0.00 | 49 | 1011.0 |
| 20260507181727 | 58 | 262 | 4.0 | 5.0 | 0.00 | 0.00 | 0.00 | 47 | 1011.0 |
| 20260507181224 | 57 | 232 | 2.0 | 2.0 | 0.00 | 0.00 | 0.00 | 46 | 1011.2 |
| 20260507180720 | 58 | 283 | 2.0 | 2.0 | 0.00 | 0.00 | 0.00 | 47 | 1011.3 |
| 20260507180217 | 59 | 219 | 3.0 | 6.0 | 0.00 | 0.00 | 0.00 | 46 | 1011.4 |
| 20260507175713 | 57 | 275 | 3.0 | 3.0 | 0.00 | 0.00 | 0.00 | 46 | 1011.4 |
| 20260507175210 | 55 | 275 | 1.0 | 2.0 | 0.00 | 0.00 | 0.00 | 48 | 1011.6 |
| 20260507174708 | 56 | 289 | 5.0 | 6.0 | 0.00 | 0.00 | 0.00 | 48 | 1012.0 |
| 20260507174206 | 57 | 280 | 3.0 | 3.0 | 0.00 | 0.00 | 0.00 | 46 | 1011.9 |
| 20260507173703 | 56 | 260 | 3.0 | 5.0 | 0.00 | 0.00 | 0.00 | 45 | 1012.0 |
| 20260507173159 | 56 | 212 | 4.0 | 10.0 | 0.00 | 0.00 | 0.00 | 46 | 1012.3 |
| 20260507172656 | 56 | 60 | 3.0 | 5.0 | 0.00 | 0.00 | 0.00 | 47 | 1012.1 |
| 20260507172153 | 56 | 248 | 1.0 | 1.0 | 0.00 | 0.00 | 0.00 | 45 | 1012.2 |
| 20260507171653 | 57 | 125 | 3.0 | 5.0 | 0.00 | 0.00 | 0.00 | 44 | 1012.2 |
| 20260507171150 | 57 | 220 | 2.0 | 2.0 | 0.00 | 0.00 | 0.00 | 48 | 1012.1 |
| 20260507170647 | 59 | 196 | 1.0 | 1.0 | 0.00 | 0.00 | 0.00 | 43 | 1012.2 |
| 20260507170144 | 58 | 229 | 2.0 | 2.0 | 0.00 | 0.00 | 0.00 | 44 | 1012.2 |
| 20260507165640 | 58 | 270 | 3.0 | 5.0 | 0.00 | 0.00 | 0.00 | 45 | 1012.3 |
| 20260507165136 | 57 | 248 | 1.0 | 2.0 | 0.00 | 0.00 | 0.00 | 47 | 1012.3 |
| 20260507164632 | 57 | 170 | 0.0 | 1.0 | 0.00 | 0.00 | 0.00 | 44 | 1012.5 |
| 20260507164129 | 57 | 253 | 3.0 | 3.0 | 0.00 | 0.00 | 0.00 | 45 | 1012.5 |
| 20260507163626 | 56 | 186 | 1.0 | 5.0 | 0.00 | 0.00 | 0.00 | 50 | 1012.9 |
| 20260507163124 | 56 | 248 | 3.0 | 3.0 | 0.00 | 0.00 | 0.00 | 46 | 1012.8 |
| 20260507162619 | 57 | 271 | 2.0 | 2.0 | 0.00 | 0.00 | 0.00 | 47 | 1013.0 |
| 20260507162111 | 57 | 246 | 3.0 | 3.0 | 0.00 | 0.00 | 0.00 | 46 | 1012.9 |
| 20260507161607 | 56 | 234 | 2.0 | 3.0 | 0.00 | 0.00 | 0.00 | 47 | 1013.0 |
| 20260507161104 | 56 | 216 | 2.0 | 3.0 | 0.00 | 0.00 | 0.00 | 45 | 1013.1 |
| 20260507160600 | 54 | 342 | 2.0 | 2.0 | 0.00 | 0.00 | 0.00 | 52 | 1013.2 |
| 20260507160056 | 56 | 288 | 1.0 | 2.0 | 0.00 | 0.00 | 0.00 | 50 | 1013.2 |
| 20260507155552 | 55 | 232 | 2.0 | 3.0 | 0.00 | 0.00 | 0.00 | 48 | 1013.4 |
| 20260507155049 | 55 | 233 | 6.0 | 8.0 | 0.00 | 0.00 | 0.00 | 46 | 1013.4 |
| 20260507154546 | 54 | 149 | 3.0 | 5.0 | 0.00 | 0.00 | 0.00 | 48 | 1013.3 |
| 20260507154043 | 54 | 227 | 3.0 | 3.0 | 0.00 | 0.00 | 0.00 | 46 | 1013.7 |